Date,TemperatureHighF,TemperatureAvgF,TemperatureLowF,DewpointHighF,DewpointAvgF,DewpointLowF,HumidityHigh,HumidityAvg,HumidityLow,PressureMaxIn,PressureMinIn,WindSpeedMaxMPH,WindSpeedAvgMPH,GustSpeedMaxMPH,PrecipitationSumIn
2013-1-1,39.0,35.8,28.0,32.0,27.0,16.0,80,71,57,29.95,29.79,4,1,11,0.00
2013-1-2,30.0,26.4,21.0,20.0,16.5,13.0,76,66,61,30.11,29.94,7,1,11,0.00
2013-1-3,30.0,24.8,21.0,21.0,18.2,16.0,82,76,59,30.15,30.03,6,1,8,0.00
2013-1-4,39.0,30.3,23.0,28.0,23.3,19.0,88,75,58,30.03,29.90,3,0,7,0.00
2013-1-5,42.0,33.3,27.0,28.0,24.4,21.0,84,70,55,30.24,29.94,2,0,14,0.00
2013-1-6,47.0,35.6,30.0,37.0,31.2,25.0,96,84,64,30.19,29.94,3,0,5,0.00
2013-1-7,43.0,35.5,26.0,34.0,28.5,22.0,94,76,54,30.37,30.00,3,1,9,0.00
2013-1-8,50.0,37.4,28.0,38.0,32.9,25.0,96,85,59,30.41,30.31,3,0,9,0.00
2013-1-9,49.0,40.4,31.0,43.0,36.5,29.0,96,86,70,30.36,30.11,2,0,6,0.00
2013-1-10,47.0,40.9,34.0,36.0,29.4,27.0,77,64,46,30.51,30.17,3,1,11,0.00
2013-1-11,47.0,39.2,31.0,46.0,35.3,28.0,95,86,73,30.51,30.10,2,0,8,0.00
2013-1-12,48.0,43.8,42.0,47.0,42.8,41.0,96,96,95,30.15,30.03,4,0,11,0.00
2013-1-13,49.0,44.1,40.0,48.0,43.1,39.0,97,96,95,30.14,30.00,2,0,5,0.00
2013-1-14,57.0,49.0,36.0,56.0,46.0,34.0,96,89,70,30.25,29.92,6,1,8,0.00
2013-1-15,38.0,35.9,34.0,34.0,31.8,30.0,97,86,76,30.30,30.19,3,0,7,0.00
2013-1-16,36.0,34.6,33.0,35.0,33.5,32.0,96,96,89,30.20,29.75,5,0,8,0.00
2013-1-17,42.0,37.1,33.0,34.0,32.0,25.0,96,82,65,30.06,29.88,4,1,11,0.00
2013-1-18,33.0,26.0,21.0,25.0,14.3,9.0,75,62,47,30.46,29.99,7,1,11,0.00
2013-1-19,49.0,38.9,21.0,38.0,30.9,14.0,86,73,59,30.39,29.93,10,2,15,0.00
2013-1-20,56.0,44.0,31.0,38.0,30.1,16.0,84,60,32,29.98,29.65,5,2,15,0.00
2013-1-21,32.0,28.1,22.0,26.0,18.1,11.0,95,67,51,30.08,29.78,4,0,10,0.00
2013-1-22,26.0,19.7,13.0,24.0,7.3,-3.0,93,59,42,30.12,29.77,8,2,16,0.00
2013-1-23,18.0,13.6,9.0,2.0,0.0,-3.0,65,54,45,30.19,30.11,6,1,12,0.00
2013-1-24,22.0,14.5,8.0,7.0,3.1,0.0,80,61,43,30.32,30.09,8,1,16,0.00
2013-1-25,25.0,17.2,10.0,18.0,9.3,4.0,93,72,52,30.35,30.02,1,0,7,0.00
2013-1-26,25.0,19.8,15.0,16.0,11.6,6.0,94,71,54,30.30,29.99,9,1,13,0.00
2013-1-27,31.0,21.6,12.0,16.0,12.0,7.0,88,67,44,30.46,30.30,4,1,11,0.00
2013-1-28,35.0,29.1,21.0,34.0,25.0,14.0,95,85,64,30.44,29.97,2,0,6,0.00
2013-1-29,46.0,37.3,33.0,41.0,35.8,32.0,96,94,83,30.13,29.96,2,0,5,0.00
2013-1-30,55.0,49.6,40.0,54.0,47.8,39.0,96,94,94,30.09,29.45,6,2,14,0.00
2013-1-31,55.0,41.4,29.0,54.0,26.9,15.0,96,57,44,29.72,29.17,8,2,18,0.00
2013-2-1,30.0,27.5,23.0,17.0,12.7,7.0,66,53,41,30.16,29.72,5,2,18,0.00
2013-2-2,31.0,24.9,18.0,22.0,13.8,11.0,92,63,48,30.26,30.04,4,0,10,0.00
2013-2-3,29.0,24.7,20.0,23.0,20.2,17.0,95,83,62,30.04,29.74,2,0,6,0.00
2013-2-4,31.0,25.2,21.0,22.0,14.5,11.0,90,64,48,29.95,29.75,7,1,15,0.00
2013-2-5,30.0,27.4,24.0,29.0,24.7,15.0,95,90,67,29.95,29.88,2,0,7,0.00
2013-2-6,38.0,32.0,27.0,30.0,24.4,14.0,95,75,54,30.31,29.88,7,1,15,0.00
2013-2-7,32.0,26.9,23.0,24.0,14.3,8.0,81,59,47,30.48,30.31,4,0,7,0.00
2013-2-8,34.0,31.4,24.0,32.0,29.3,23.0,96,92,80,30.33,29.51,8,1,18,0.00
2013-2-9,26.0,23.8,19.0,24.0,19.9,11.0,96,86,64,30.24,29.61,0,0,0,0.00
2013-2-10,35.0,22.4,13.0,22.0,13.8,7.0,92,70,45,30.43,30.24,0,0,1,0.00
2013-2-11,44.0,37.3,24.0,42.0,35.7,22.0,95,94,91,30.32,29.64,7,1,13,0.00
2013-2-12,44.0,37.8,30.0,38.0,31.8,26.0,96,80,59,29.93,29.66,6,1,14,0.00
2013-2-13,44.0,33.5,24.0,30.0,26.9,22.0,94,78,56,29.91,29.66,1,0,5,0.00
2013-2-14,44.0,34.6,26.0,34.0,29.7,25.0,96,83,54,29.98,29.67,1,0,6,0.00
2013-2-15,48.0,38.3,30.0,41.0,35.6,29.0,97,90,74,30.00,29.90,4,0,8,0.00
2013-2-16,39.0,34.1,28.0,37.0,29.3,23.0,95,83,65,29.92,29.66,8,1,11,0.00
2013-2-17,31.0,24.8,16.0,26.0,12.5,4.0,95,61,39,29.86,29.55,12,3,20,0.00
2013-2-18,32.0,22.5,16.0,16.0,10.2,5.0,68,59,44,30.19,29.86,11,3,21,0.00
2013-2-19,47.0,36.9,25.0,42.0,32.7,16.0,95,86,67,30.19,29.63,6,1,10,0.00
2013-2-20,40.0,30.9,24.0,39.0,20.4,13.0,95,65,52,29.90,29.65,9,2,17,0.00
2013-2-21,33.0,26.4,21.0,19.0,16.2,14.0,75,65,55,30.22,29.88,8,3,22,0.00
2013-2-22,38.0,30.7,23.0,31.0,24.6,17.0,87,78,65,30.36,30.21,3,0,11,0.00
2013-2-23,41.0,36.7,34.0,40.0,35.0,30.0,95,93,86,30.26,29.77,4,1,11,0.00
2013-2-24,42.0,36.6,30.0,39.0,34.2,29.0,96,91,77,29.89,29.69,4,2,12,0.00
2013-2-25,45.0,36.0,26.0,34.0,29.5,25.0,95,79,55,30.21,29.89,3,0,7,0.00
2013-2-26,43.0,37.7,35.0,36.0,33.8,31.0,95,86,68,30.28,29.94,8,0,11,0.00
2013-2-27,47.0,42.6,36.0,45.0,41.1,35.0,95,94,91,29.94,29.49,6,2,19,0.00
2013-2-28,47.0,40.2,36.0,43.0,38.3,34.0,95,92,79,29.61,29.51,2,0,6,0.00
2013-3-1,44.0,38.7,34.0,36.0,33.1,30.0,95,81,63,29.72,29.55,6,1,10,0.00
2013-3-2,40.0,35.8,32.0,32.0,28.5,27.0,87,75,65,29.72,29.64,5,1,9,0.00
2013-3-3,36.0,32.1,29.0,28.0,24.8,23.0,86,75,62,29.68,29.61,9,2,12,0.00
2013-3-4,41.0,32.8,28.0,26.0,23.0,20.0,76,68,54,29.82,29.68,5,2,17,0.00
2013-3-5,46.0,37.1,30.0,32.0,27.7,22.0,83,69,51,30.00,29.82,6,1,13,0.00
2013-3-6,40.0,37.4,34.0,37.0,33.8,31.0,94,87,77,29.98,29.81,15,3,23,0.00
2013-3-7,36.0,32.8,31.0,33.0,31.2,30.0,95,94,87,29.99,29.84,12,2,20,0.00
2013-3-8,37.0,32.9,30.0,34.0,31.1,29.0,95,92,76,30.11,29.92,3,0,13,0.00
2013-3-9,51.0,39.1,31.0,33.0,28.6,26.0,94,69,38,30.31,30.11,6,1,10,0.00
2013-3-10,49.0,36.3,28.0,40.0,32.6,27.0,95,87,70,30.37,30.29,2,0,5,0.00
2013-3-11,53.0,43.8,36.0,47.0,41.0,34.0,95,90,78,30.30,30.09,3,0,8,0.00
2013-3-12,52.0,49.2,45.0,50.0,47.2,43.0,95,94,92,30.10,29.68,11,3,16,0.00
2013-3-13,49.0,42.1,33.0,42.0,33.5,27.0,96,73,49,29.85,29.76,3,1,12,0.00
2013-3-14,38.0,32.9,29.0,31.0,19.0,13.0,81,57,41,29.89,29.80,9,3,19,0.00
2013-3-15,45.0,36.0,28.0,32.0,21.3,12.0,73,55,37,29.92,29.69,5,1,14,0.00
2013-3-16,40.0,34.0,31.0,31.0,27.7,24.0,95,78,62,29.86,29.74,5,0,9,0.00
2013-3-17,36.0,31.2,25.0,31.0,22.7,16.0,95,73,53,30.27,29.86,6,1,10,0.00
2013-3-18,38.0,31.2,24.0,31.0,20.4,14.0,94,65,47,30.38,30.04,3,0,10,0.00
2013-3-19,39.0,35.6,32.0,37.0,34.2,31.0,95,95,93,30.04,29.62,5,2,13,0.00
2013-3-20,45.0,36.3,28.0,33.0,24.4,22.0,95,63,43,29.84,29.74,6,1,16,0.00
2013-3-21,35.0,31.1,26.0,29.0,27.2,25.0,95,86,69,29.81,29.61,5,1,9,0.00
2013-3-22,40.0,33.0,25.0,25.0,21.9,18.0,82,64,47,29.83,29.66,9,1,12,0.00
2013-3-23,45.0,36.9,28.0,27.0,23.7,22.0,79,60,43,29.87,29.74,9,2,18,0.00
2013-3-24,45.0,36.7,28.0,30.0,25.2,21.0,79,64,49,29.90,29.69,3,1,10,0.00
2013-3-25,40.0,36.3,33.0,35.0,31.5,29.0,94,83,68,29.72,29.41,8,1,14,0.00
2013-3-26,51.0,40.0,33.0,34.0,31.5,30.0,94,73,47,29.82,29.52,4,1,10,0.00
2013-3-27,53.0,41.5,30.0,31.0,28.6,26.0,87,62,39,29.91,29.81,5,1,12,0.00
2013-3-28,49.0,41.8,35.0,37.0,33.2,29.0,83,72,61,30.06,29.91,4,1,10,0.00
2013-3-29,54.0,46.1,38.0,35.0,32.6,30.0,78,61,42,30.09,30.01,4,1,11,0.00
2013-3-30,56.0,44.3,33.0,36.0,31.8,26.0,89,64,32,30.12,30.04,5,1,11,0.00
2013-3-31,55.0,44.4,33.0,43.0,37.4,-99.9,94,81,55,30.11,29.63,5,1,12,0.00
2013-4-1,59.0,47.1,38.0,50.0,41.8,19.0,95,83,45,29.84,29.60,6,1,12,0.00
2013-4-2,38.0,33.3,29.0,21.0,19.8,18.0,70,58,45,29.97,29.84,6,2,13,0.00
2013-4-5,59.0,50.6,43.0,30.0,26.4,24.0,52,40,30,29.91,29.71,6,3,11,0.00
2013-4-6,50.0,40.3,34.0,30.0,24.2,12.0,77,54,24,30.30,29.93,5,1,10,0.00
2013-4-7,52.0,43.4,32.0,45.0,37.6,29.0,94,81,62,30.29,30.02,10,2,17,0.00
2013-4-8,69.0,54.0,42.0,52.0,45.9,40.0,94,77,46,30.06,29.97,6,1,8,0.00
2013-4-9,80.0,63.3,48.0,57.0,48.4,44.0,93,64,32,30.02,29.91,6,1,21,0.00
2013-4-10,74.0,56.7,49.0,58.0,50.0,45.0,93,79,56,29.93,29.80,3,1,14,0.00
2013-4-11,61.0,51.9,45.0,53.0,47.6,39.0,94,86,70,30.04,29.77,4,1,11,0.00
2013-4-12,46.0,42.1,39.0,40.0,38.3,36.0,94,87,74,30.05,29.68,6,2,17,0.00
2013-4-13,57.0,45.4,37.0,42.0,38.7,35.0,94,80,53,29.96,29.70,4,1,10,0.00
2013-4-14,58.0,49.3,43.0,47.0,37.6,31.0,94,67,42,30.20,29.95,9,2,14,0.00
2013-4-15,58.0,46.8,38.0,40.0,35.1,30.0,92,65,48,30.37,30.20,2,0,7,0.00
2013-4-16,61.0,51.2,40.0,54.0,47.0,38.0,94,86,73,30.37,30.13,8,2,13,0.00
2013-4-17,67.0,57.6,48.0,53.0,44.2,36.0,93,65,33,30.27,30.10,4,1,11,0.00
2013-4-18,61.0,52.0,43.0,52.0,45.1,41.0,93,79,54,30.35,30.12,3,1,10,0.00
2013-4-19,67.0,58.4,54.0,63.0,56.2,52.0,94,92,85,30.12,29.69,11,3,19,0.00
2013-4-20,59.0,53.0,46.0,57.0,42.3,33.0,95,70,42,30.22,29.68,7,1,16,0.00
2013-4-21,53.0,43.2,35.0,33.0,27.8,24.0,77,56,34,30.61,30.22,6,1,12,0.00
2013-4-22,56.0,44.6,34.0,38.0,34.6,31.0,92,70,45,30.64,30.49,5,1,12,0.00
2013-4-23,47.0,42.5,40.0,43.0,39.0,34.0,93,87,78,30.49,30.05,5,2,13,0.00
2013-4-24,65.0,50.0,42.0,51.0,45.0,40.0,94,84,60,30.05,29.88,5,2,11,0.00
2013-4-25,63.0,53.4,45.0,50.0,39.3,29.0,94,63,29,30.25,29.88,6,1,12,0.00
2013-4-26,65.0,52.5,40.0,45.0,39.8,37.0,94,65,38,30.38,30.25,4,0,7,0.00
2013-4-27,65.0,52.5,41.0,46.0,38.4,33.0,91,62,31,30.40,30.29,3,0,9,0.00
2013-4-28,66.0,53.6,42.0,51.0,42.2,35.0,94,70,36,30.31,30.22,4,1,8,0.00
2013-4-29,62.0,54.6,51.0,49.0,46.7,42.0,88,75,58,30.24,30.20,5,0,9,0.00
2013-4-30,68.0,56.7,46.0,51.0,39.8,30.0,88,58,29,30.32,30.20,3,0,9,0.00
2013-5-1,71.0,54.2,40.0,51.0,43.1,32.0,93,68,49,30.47,30.31,4,0,9,0.00
2013-5-2,71.0,56.2,43.0,52.0,45.5,41.0,94,70,45,30.45,30.32,2,0,6,0.00
2013-5-3,65.0,53.8,45.0,50.0,43.9,39.0,92,71,44,30.45,30.35,10,1,13,0.00
2013-5-4,68.0,51.9,42.0,51.0,43.9,39.0,94,76,49,30.36,30.25,4,0,10,0.00
2013-5-5,63.0,49.0,40.0,47.0,42.3,38.0,93,79,54,30.29,30.22,3,0,9,0.00
2013-5-6,70.0,55.0,43.0,56.0,48.1,41.0,93,79,59,30.25,30.15,2,0,9,0.00
2013-5-7,76.0,59.0,46.0,64.0,54.0,44.0,93,85,65,30.16,30.09,2,0,6,0.00
2013-5-8,65.0,58.9,53.0,63.0,56.8,51.0,93,93,91,30.13,30.00,2,0,11,0.00
2013-5-9,64.0,57.3,52.0,61.0,55.2,50.0,94,93,88,30.01,29.86,2,0,5,0.00
2013-5-10,80.0,62.7,51.0,62.0,54.1,-99.9,96,79,52,29.98,29.92,2,0,5,0.00
2013-5-11,65.0,60.2,57.0,63.0,58.1,55.0,94,93,88,29.92,29.69,3,0,8,0.00
2013-5-12,71.0,60.7,53.0,57.0,48.2,-99.9,95,69,35,29.88,29.64,3,0,8,0.00
2013-5-13,58.0,50.2,42.0,37.0,34.2,30.0,77,55,42,30.06,29.88,6,0,10,0.00
2013-5-14,58.0,49.3,40.0,43.0,36.6,31.0,86,64,37,30.08,30.01,2,0,8,0.00
2013-5-15,62.0,53.3,42.0,56.0,48.8,40.0,94,85,57,30.06,29.68,5,1,9,0.00
2013-5-16,77.0,57.5,54.0,59.0,33.7,-99.9,94,75,45,29.80,29.69,1,0,5,0.00
2013-5-17,70.0,59.8,52.0,55.0,41.5,-99.9,91,64,41,30.18,29.79,3,0,8,0.00
2013-5-18,70.0,59.0,51.0,56.0,51.8,47.0,93,79,53,30.30,30.18,2,0,7,0.00
2013-5-19,57.0,56.1,55.0,55.0,53.7,51.0,94,92,83,30.33,30.18,0,0,8,0.00
2013-5-20,76.0,64.7,57.0,70.0,61.8,55.0,95,91,79,30.18,29.97,1,0,4,0.00
2013-5-21,81.0,69.3,61.0,73.0,65.3,59.0,94,88,74,29.97,29.85,3,0,5,0.00
2013-5-22,77.0,65.0,56.0,70.0,62.5,54.0,95,92,79,29.93,29.86,1,0,5,0.00
2013-5-23,72.0,65.9,63.0,69.0,63.7,61.0,95,93,89,29.92,29.80,3,1,11,0.00
2013-5-24,66.0,58.3,47.0,65.0,56.6,46.0,96,94,89,29.87,29.67,5,1,11,0.00
2013-5-25,47.0,45.5,44.0,46.0,44.1,43.0,96,95,86,29.92,29.81,6,1,13,0.00
2013-5-26,64.0,53.4,46.0,45.0,43.3,41.0,88,70,48,30.17,29.88,6,1,12,0.00
2013-5-27,70.0,58.2,46.0,52.0,44.7,40.0,90,64,37,30.21,30.13,3,0,8,0.00
2013-5-28,70.0,57.9,51.0,56.0,52.5,48.0,95,84,50,30.21,30.14,1,0,2,0.00
2013-5-29,74.0,64.2,56.0,69.0,61.7,55.0,96,91,82,30.14,30.01,1,0,3,0.00
2013-5-30,88.0,75.0,63.0,74.0,67.6,61.0,95,79,59,30.11,30.06,2,0,3,0.00
2013-5-31,90.0,75.3,65.0,76.0,67.6,63.0,94,79,58,30.11,30.00,2,0,4,0.00
2013-6-1,83.0,72.9,65.0,73.0,67.6,63.0,94,84,71,30.02,29.93,3,1,6,0.00
2013-6-2,78.0,69.5,64.0,70.0,64.3,-99.9,94,88,77,29.94,29.80,4,1,7,0.00
2013-6-3,73.0,67.3,64.0,70.0,65.3,62.0,95,94,91,29.85,29.79,1,0,4,0.00
2013-6-4,73.0,63.7,54.0,64.0,51.5,47.0,92,66,45,30.07,29.83,3,0,8,0.00
2013-6-5,71.0,62.6,51.0,55.0,51.4,47.0,93,69,44,30.19,30.07,1,0,3,0.00
2013-6-6,70.0,63.0,56.0,61.0,56.6,53.0,95,81,56,30.15,30.02,2,0,4,0.00
2013-6-7,62.0,59.8,57.0,61.0,58.2,56.0,95,94,93,30.02,29.65,3,0,9,0.00
2013-6-8,75.0,64.5,54.0,68.0,62.0,53.0,97,91,79,30.03,29.52,1,0,8,0.00
2013-6-9,77.0,68.6,59.0,65.0,61.5,58.0,95,79,61,30.17,30.02,1,0,5,0.00
2013-6-10,72.0,64.3,60.0,68.0,62.5,59.0,95,93,84,30.16,29.86,4,0,7,0.00
2013-6-11,78.0,69.8,64.0,71.0,67.3,63.0,96,92,76,29.86,29.59,3,0,6,0.00
2013-6-12,74.0,67.8,62.0,63.0,58.0,55.0,92,72,58,29.84,29.65,5,1,12,0.00
2013-6-13,64.0,60.6,55.0,60.0,57.9,54.0,95,91,77,29.82,29.48,2,0,11,0.00
2013-6-14,69.0,58.3,52.0,60.0,55.2,51.0,96,89,72,29.83,29.47,7,1,11,0.00
2013-6-15,78.0,67.4,58.0,62.0,57.6,52.0,95,74,46,29.97,29.83,4,0,8,0.00
2013-6-16,78.0,68.3,59.0,68.0,62.5,57.0,94,82,56,29.97,29.76,2,0,4,0.00
2013-6-17,82.0,73.5,65.0,72.0,67.6,63.0,95,83,65,29.92,29.83,3,0,4,0.00
2013-6-18,81.0,70.2,63.0,73.0,66.3,61.0,95,88,69,29.89,29.82,2,0,6,0.00
2013-6-19,74.0,65.4,58.0,63.0,57.7,53.0,95,78,49,30.14,29.85,3,0,8,0.00
2013-6-20,76.0,65.4,56.0,62.0,57.5,54.0,94,78,57,30.26,30.14,2,0,5,0.00
2013-6-22,80.0,73.7,67.0,68.0,63.3,60.0,91,71,57,30.25,30.15,1,0,3,0.00
2013-6-23,83.0,74.0,64.0,74.0,68.5,61.0,94,83,69,30.18,30.08,2,0,4,0.00
2013-6-24,90.0,78.8,71.0,78.0,72.3,67.0,95,82,63,30.08,29.94,2,0,12,0.00
2013-6-25,91.0,79.3,70.0,76.0,71.5,66.0,92,78,57,29.99,29.79,3,0,5,0.00
2013-6-26,85.0,79.3,74.0,74.0,71.7,69.0,91,78,65,29.83,29.76,1,0,5,0.00
2013-6-27,83.0,75.1,71.0,76.0,71.8,69.0,94,90,76,29.82,29.61,1,0,6,0.00
2013-6-28,81.0,75.9,72.0,76.0,72.6,70.0,95,90,82,29.61,29.50,2,1,6,0.00
2013-6-29,79.0,73.5,68.0,74.0,70.6,67.0,95,91,82,29.71,29.49,2,0,4,0.00
2013-6-30,79.0,72.5,70.0,75.0,70.5,68.0,95,95,89,29.93,29.71,2,0,6,0.00
2013-7-1,75.0,73.0,72.0,74.0,71.4,70.0,97,96,95,30.07,29.92,2,0,4,0.00
2013-7-2,78.0,74.1,72.0,75.0,72.6,71.0,96,95,90,30.19,30.07,2,0,5,0.00
2013-7-3,83.0,75.1,70.0,77.0,73.1,69.0,96,93,82,30.25,30.18,1,0,3,0.00
2013-7-4,86.0,77.4,72.0,79.0,74.3,71.0,97,90,79,30.25,30.17,2,0,4,0.00
2013-7-5,87.0,78.8,72.0,79.0,74.7,71.0,96,88,76,30.21,30.10,2,0,4,0.00
2013-7-6,90.0,80.5,74.0,80.0,75.4,72.0,96,86,70,30.13,30.01,1,0,3,0.00
2013-7-7,89.0,81.8,75.0,79.0,76.0,73.0,95,83,67,30.04,29.93,2,0,3,0.00
2013-7-8,87.0,78.6,72.0,76.0,71.0,-99.9,92,81,65,30.03,29.93,3,0,5,0.00
2013-7-9,85.0,78.1,71.0,76.0,73.0,69.0,94,85,67,30.06,29.99,2,0,4,0.00
2013-7-10,85.0,77.0,74.0,79.0,72.1,-99.9,96,88,80,30.02,29.81,2,0,5,0.00
2013-7-11,81.0,76.2,73.0,76.0,73.8,69.0,96,92,79,29.91,29.80,0,0,2,0.00
2013-7-12,76.0,71.7,67.0,73.0,69.1,66.0,96,91,87,30.10,29.91,2,0,7,0.00
2013-7-13,81.0,73.8,68.0,79.0,72.6,67.0,97,96,93,30.28,30.10,1,0,4,0.00
2013-7-14,87.0,78.9,73.0,79.0,75.3,72.0,97,89,73,30.32,30.23,2,0,6,0.00
2013-7-15,91.0,81.9,75.0,80.0,75.7,73.0,95,83,66,30.24,30.12,1,0,6,0.00
2013-7-16,91.0,81.8,74.0,75.0,73.4,72.0,94,77,57,30.17,30.11,2,0,6,0.00
2013-7-17,91.0,82.0,74.0,79.0,74.8,72.0,94,80,59,30.18,30.07,1,0,4,0.00
2013-7-18,95.0,84.4,76.0,80.0,76.9,73.0,92,79,60,30.07,29.96,2,0,5,0.00
2013-7-19,94.0,85.1,80.0,83.0,79.4,77.0,94,84,70,29.96,29.80,3,1,6,0.00
2013-7-20,90.0,82.4,76.0,79.0,75.7,-99.9,96,83,69,29.83,29.71,2,0,6,0.00
2013-7-21,84.0,78.0,72.0,74.0,71.2,67.0,95,81,61,29.96,29.83,2,0,4,0.00
2013-7-22,86.0,76.7,72.0,78.0,73.9,70.0,96,91,77,29.96,29.83,1,0,4,0.00
2013-7-23,84.0,77.3,70.0,78.0,74.7,69.0,97,92,80,29.83,29.55,3,0,5,0.00
2013-7-24,82.0,75.1,70.0,75.0,70.8,63.0,96,87,73,29.90,29.59,2,0,7,0.00
2013-7-25,71.0,63.7,61.0,63.0,59.5,56.0,97,87,76,30.03,29.90,3,1,8,0.00
2013-7-26,76.0,66.3,61.0,69.0,63.9,60.0,97,92,75,30.04,29.94,3,0,5,0.00
2013-7-27,80.0,72.6,66.0,71.0,68.1,65.0,97,87,65,30.06,29.98,2,0,3,0.00
2013-7-28,79.0,72.2,67.0,73.0,69.0,66.0,97,90,70,30.00,29.94,1,0,4,0.00
2013-7-29,85.0,76.5,68.0,75.0,71.4,62.0,97,85,61,30.07,29.95,2,0,4,0.00
2013-7-30,79.0,70.9,63.0,64.0,61.9,60.0,93,74,56,30.14,30.07,4,0,6,0.00
2013-7-31,79.0,71.2,63.0,67.0,64.2,61.0,96,80,60,30.14,30.05,2,0,4,0.00
2013-8-1,76.0,69.4,66.0,71.0,67.0,65.0,96,92,79,30.05,29.84,2,0,4,0.00
2013-8-2,82.0,73.4,68.0,70.0,68.0,63.0,97,84,56,29.90,29.78,2,0,7,0.00
2013-8-3,77.0,71.2,68.0,70.0,67.5,65.0,94,88,76,29.91,29.83,2,0,3,0.00
2013-8-4,77.0,70.2,63.0,67.0,62.6,60.0,96,78,55,29.93,29.83,2,0,11,0.00
2013-8-5,74.0,67.1,59.0,62.0,55.7,51.0,89,68,49,30.04,29.93,3,0,10,0.00
2013-8-6,78.0,69.5,61.0,66.0,61.9,60.0,96,78,58,30.13,30.03,3,0,5,0.00
2013-8-7,77.0,70.0,62.0,69.0,64.8,59.0,95,84,68,30.15,30.09,3,0,5,0.00
2013-8-8,78.0,72.5,68.0,74.0,70.6,67.0,96,94,85,30.10,30.02,3,1,7,0.00
2013-8-9,80.0,75.4,73.0,77.0,74.0,72.0,96,95,90,30.04,29.81,4,1,9,0.00
2013-8-10,81.0,74.8,68.0,74.0,67.4,63.0,97,79,59,30.03,29.83,1,0,7,0.00
2013-8-11,78.0,70.0,60.0,65.0,59.9,55.0,85,71,51,30.10,30.03,4,0,6,0.00
2013-8-21,87.0,75.7,67.0,72.0,68.2,63.0,96,80,48,30.16,30.06,2,0,5,0.00
2013-8-22,80.0,73.1,71.0,75.0,71.3,69.0,97,94,85,30.06,29.86,1,0,3,0.00
2013-8-23,78.0,72.5,67.0,70.0,65.9,61.0,97,81,60,30.08,29.85,5,0,7,0.00
2013-8-24,75.0,67.7,61.0,65.0,59.4,55.0,95,76,50,30.33,30.08,2,0,6,0.00
2013-8-25,80.0,68.5,59.0,65.0,58.6,-99.9,97,75,49,30.37,30.23,2,0,4,0.00
2013-8-26,80.0,71.9,68.0,71.0,65.4,60.0,96,80,66,30.23,29.92,2,0,4,0.00
2013-8-27,81.0,71.7,69.0,75.0,69.8,68.0,98,94,81,29.92,29.80,4,0,10,0.00
2013-9-24,67.0,55.7,45.0,53.0,47.6,43.0,94,76,55,30.03,29.85,1,0,6,0.00
2013-9-25,68.0,58.2,49.0,55.0,50.9,48.0,97,79,53,29.93,29.87,2,0,4,0.00
2013-9-26,66.0,59.3,53.0,58.0,55.3,52.0,97,87,69,30.09,29.92,2,0,5,0.00
2013-9-27,63.0,57.9,51.0,57.0,53.7,50.0,97,87,73,30.25,30.09,2,0,5,0.00
2013-9-28,70.0,60.8,53.0,59.0,55.8,52.0,97,85,65,30.31,30.24,1,0,6,0.00
2013-9-29,66.0,57.6,51.0,57.0,49.7,-99.9,97,80,43,30.24,30.08,3,0,6,0.00
2013-9-30,68.0,58.8,50.0,60.0,54.8,49.0,98,88,61,30.08,29.97,1,0,4,0.00
2013-10-18,65.0,60.6,54.0,63.0,53.1,47.0,97,77,57,29.95,29.67,3,0,10,0.00
2013-10-19,66.0,55.8,47.0,57.0,48.9,44.0,96,79,53,29.98,29.75,2,0,4,0.00
2013-10-20,60.0,53.7,48.0,58.0,43.9,-99.9,96,73,51,30.04,29.72,3,0,12,0.00
2013-10-21,66.0,54.0,43.0,50.0,43.9,40.0,91,71,45,30.14,30.00,2,0,4,0.00
2013-10-22,68.0,58.2,50.0,55.0,50.6,47.0,96,77,55,30.00,29.73,1,0,6,0.00
2013-10-23,52.0,47.2,43.0,47.0,41.0,38.0,89,80,64,29.79,29.60,2,0,5,0.00
2013-10-24,54.0,45.8,39.0,41.0,35.0,30.0,92,68,47,29.96,29.70,3,0,8,0.00
2013-11-29,37.0,30.8,25.0,25.0,20.6,17.0,81,66,56,30.69,30.44,4,0,11,0.00
2013-11-30,37.0,29.3,21.0,34.0,20.8,-99.9,88,73,51,30.73,30.37,1,0,5,0.00
2013-12-1,50.0,42.9,37.0,46.0,40.9,34.0,96,92,87,30.37,29.99,2,0,6,0.00
2013-12-2,47.0,39.5,35.0,43.0,37.8,34.0,96,93,86,29.99,29.87,1,0,4,0.00
2013-12-3,50.0,40.1,35.0,41.0,36.6,34.0,96,88,64,29.98,29.85,2,0,5,0.00
2013-12-4,53.0,42.0,33.0,44.0,38.5,32.0,96,88,65,30.13,29.98,1,0,6,0.00
2013-12-5,59.0,53.6,45.0,57.0,52.4,44.0,95,95,93,30.13,29.95,3,0,6,0.00
2013-12-13,33.0,26.1,19.0,21.0,15.5,8.0,78,64,54,30.30,30.08,5,1,12,0.00
2013-12-14,39.0,24.9,20.0,38.0,21.0,-99.9,96,88,77,30.48,29.86,5,1,15,0.00
2013-12-15,44.0,35.7,31.0,43.0,33.1,24.0,96,90,76,29.86,29.41,6,1,13,0.00
2013-12-16,31.0,26.5,19.0,25.0,16.2,12.0,84,65,53,30.19,29.80,7,1,13,0.00
2013-12-17,33.0,24.8,18.0,32.0,21.7,12.0,96,88,68,30.20,29.88,3,0,10,0.00
2013-12-18,34.0,27.4,22.0,27.0,23.7,21.0,95,86,71,30.13,29.86,5,1,10,0.00
2013-12-19,46.0,34.7,23.0,36.0,28.2,21.0,91,78,57,30.14,30.00,2,0,9,0.00